[[{"header":{"parameterUnit":"m.s-1","parameterCategory":1,"la1":30.2991,"la2":30.254,"lo1":-89.0895,"lo2":-89.0444,"dy":0.0017,"dx":0.0017,"nx":28,"ny":28,"refTime":"2023-10-07T09:00:00:Z","depth":0,"parameterNumber":2,"parameterNumberName":"U-component_of_WINDS"},"data":[0,0,0,0,0,0,0,0,0,0,0,0,0,0,0,0,0,0,0,0,0,0,0,0,0,0,0,0,0,0,0,0,0,0,0,0,0,0,0,0,0,0,0,0,0,0,0,0,0,0,0,0,0,0,0,0,0,0,-0.5972,-0.5972,0,-0.5985,-0.5985,-0.5985,-0.5949,-0.5948,-0.5947,-0.5946,-0.5961,-0.5962,-0.5964,0,0,0,0,0,0,0,0,0,0,0,0,0,-0.5916,-0.5917,-0.5972,-0.5972,-0.5972,-0.5985,-0.5985,-0.5985,-0.5949,-0.5948,-0.5947,-0.5945,-0.5961,-0.5962,-0.5964,0,0,0,0,0,0,0,0,0,0,0,0,0,-0.5936,-0.5918,-0.5972,-0.5956,-0.5954,-0.5985,-0.5985,-0.5985,-0.595,-0.5948,-0.5946,-0.5945,-0.596,-0.5962,-0.5964,-0.6012,0,0,-0.5971,-0.5972,0,0,0,0,0,0,0,0,-0.5935,-0.5938,-0.5958,-0.5957,-0.5955,-0.5964,-0.5971,-0.5994,-0.595,-0.5952,-0.5946,-0.5944,-0.5963,-0.5965,-0.5971,-0.6012,-0.6013,-0.5971,-0.5973,-0.5973,-0.5974,0,0,0,0,0,0,0,-0.5933,-0.5937,-0.5977,-0.5958,-0.5957,-0.5948,-0.5949,-0.5975,-0.5967,-0.5951,-0.5949,-0.5951,-0.5962,-0.5969,-0.5972,-0.6013,-0.5971,-0.5973,-0.5974,-0.5975,-0.6094,-0.6095,0,0,0,0,0,0,-0.5934,-0.5936,-0.5977,-0.5977,-0.5941,-0.595,-0.5951,-0.5963,-0.5966,-0.5965,-0.5952,-0.5949,-0.5967,-0.5969,-0.5972,-0.6028,-0.5973,-0.5975,-0.5977,-0.6092,-0.6094,-0.6096,0,0,0,0,0,0,-0.5933,-0.5938,-0.5976,-0.5956,-0.596,-0.5953,-0.5966,-0.5964,-0.5971,-0.5967,-0.5965,-0.5961,-0.5965,-0.5969,-0.6002,-0.6028,-0.5976,-0.5978,-0.609,-0.6092,-0.6095,-0.6141,0,0,0,0,0,0,-0.5931,-0.5938,-0.5956,-0.5957,-0.5962,-0.6006,-0.5968,-0.5965,-0.5975,-0.5971,-0.5975,-0.5974,-0.5964,-0.5999,-0.6004,-0.603,-0.598,-0.6087,-0.6091,-0.6094,-0.6137,-0.6145,-0.6151,0,0,0,0,0,-0.593,-0.5968,-0.5957,-0.5962,-0.5984,-0.6007,-0.601,-0.5998,-0.5977,-0.5995,-0.5992,-0.5974,-0.6024,-0.6003,-0.6008,-0.6035,-0.6086,-0.609,-0.6094,-0.6134,-0.6143,-0.6151,0,0,0,0,0,0,-0.5971,-0.5968,-0.5955,-0.5995,-0.6002,-0.6001,-0.6024,-0.6008,-0.6021,-0.6017,-0.6002,-0.6003,-0.6039,-0.604,-0.6016,-0.6081,-0.6051,-0.6057,-0.608,-0.6089,-0.6096,-0.6096,-0.5982,0,0,0,0,0,-0.5985,-0.6004,-0.6,-0.6036,-0.604,-0.6031,-0.6041,-0.6031,-0.6037,-0.604,-0.604,-0.6047,-0.6064,-0.6076,-0.6092,-0.6136,-0.6137,-0.6158,-0.6165,-0.6171,-0.6176,-0.62,-0.621,-0.611,-0.611,-0.6109,0,0,-0.6014,-0.6014,-0.6028,-0.6045,-0.6048,-0.6069,-0.6034,-0.6057,-0.6073,-0.6044,-0.6075,-0.6075,-0.6082,-0.6121,-0.6138,-0.6123,-0.6204,-0.6176,-0.6181,-0.6183,-0.6205,-0.6215,-0.6223,-0.6112,-0.6112,-0.6111,0,0,-0.6077,-0.6079,-0.611,-0.6114,-0.612,-0.6113,-0.6121,-0.6122,-0.6121,-0.6152,-0.613,-0.6148,-0.6178,-0.6184,-0.6191,-0.6256,-0.6239,-0.6261,-0.63,-0.6323,-0.6331,-0.6338,-0.6362,-0.6371,-0.6266,-0.6266,-0.6266,0,-0.6113,-0.6143,-0.6127,-0.6152,-0.616,-0.6134,-0.6165,-0.6169,-0.6181,-0.6187,-0.6169,-0.6206,-0.6209,-0.6249,-0.6265,-0.6271,-0.6279,-0.6261,-0.6331,-0.6338,-0.6344,-0.6367,-0.6376,-0.6269,-0.6268,-0.6268,-0.6268,0,-0.6187,-0.6208,-0.6231,-0.6242,-0.6253,-0.628,-0.6269,-0.6282,-0.627,-0.6266,-0.6298,-0.63,-0.6316,-0.6324,-0.6313,-0.6363,-0.6353,-0.6333,-0.6303,-0.6357,-0.6378,-0.6386,-0.6273,-0.6272,-0.6271,-0.627,0,0,-0.6279,-0.6279,-0.6289,-0.6293,-0.6297,-0.6313,-0.6339,-0.6354,-0.6366,-0.6373,-0.6396,-0.6421,-0.6403,-0.6411,-0.64,-0.642,-0.6472,-0.6398,-0.6398,-0.6413,-0.6528,-0.6544,-0.6554,-0.646,-0.6462,-0.6463,-0.6528,0,-0.6343,-0.6388,-0.6374,-0.6419,-0.6439,-0.6413,-0.6436,-0.6441,-0.6437,-0.6453,-0.6449,-0.6468,-0.6442,-0.6446,-0.6465,-0.6462,-0.6495,-0.6457,-0.6482,-0.6483,-0.6483,-0.6565,-0.6582,-0.6643,-0.6536,-0.6537,-0.6538,0,-0.6423,-0.6434,-0.6482,-0.6482,-0.6489,-0.651,-0.6523,-0.6538,-0.6543,-0.6539,-0.6547,-0.6532,-0.6558,-0.6526,-0.6562,-0.6536,-0.6545,-0.6545,-0.6547,-0.655,-0.6515,-0.6572,-0.6662,-0.6672,-0.6551,-0.655,-0.6549,0,-0.6488,-0.6513,-0.6545,-0.655,-0.655,-0.6566,-0.6567,-0.657,-0.658,-0.659,-0.6596,-0.661,-0.6618,-0.6629,-0.6617,-0.6595,-0.6655,-0.6622,-0.6653,-0.6654,-0.6669,-0.6669,-0.6763,-0.6672,-0.6672,-0.6672,-0.6672,0,-0.6561,-0.6592,-0.6574,-0.6594,-0.6627,-0.661,-0.6644,-0.6642,-0.6645,-0.6664,-0.6642,-0.666,-0.6644,-0.6661,-0.6652,-0.6683,-0.6687,-0.6685,-0.6682,-0.6688,-0.6688,-0.6695,-0.6691,-0.6674,-0.6674,-0.6673,-0.6673,0,-0.664,-0.6629,-0.6662,-0.6659,-0.6659,-0.6684,-0.6682,-0.6701,-0.6694,-0.6719,-0.6724,-0.6714,-0.6733,-0.6722,-0.6742,-0.6736,-0.6777,-0.6768,-0.6776,-0.6774,-0.6806,-0.6804,-0.691,-0.6923,-0.6822,-0.6823,-0.6824,0,-0.6688,-0.6711,-0.6711,-0.6722,-0.6724,-0.6742,-0.6751,-0.6735,-0.6746,-0.6753,-0.6771,-0.6787,-0.68,-0.6831,-0.6826,-0.6841,-0.6833,-0.6869,-0.6835,-0.684,-0.6835,-0.6835,-0.6837,-0.6877,-0.6878,-0.6879,-0.688,0,-0.6776,-0.677,-0.6784,-0.6796,-0.6808,-0.6817,-0.6825,-0.6835,-0.6819,-0.6832,-0.685,-0.686,-0.6879,-0.6897,-0.6909,-0.691,-0.6893,-0.689,-0.6898,-0.6905,-0.6909,-0.6908,-0.6796,-0.6888,-0.6887,-0.6887,-0.6886,-0.6886,-0.6842,-0.6861,-0.6864,-0.6881,-0.6884,-0.6891,-0.6908,-0.6904,-0.6919,-0.6933,-0.6922,-0.6945,-0.6948,-0.6963,-0.6966,-0.6983,-0.6969,-0.6981,-0.6984,-0.6988,-0.6993,-0.6904,-0.6985,-0.6985,-0.6985,-0.6985,-0.6984,0,-0.693,-0.693,-0.6946,-0.6956,-0.6969,-0.695,-0.6957,-0.6969,-0.6989,-0.6994,-0.7006,-0.7028,-0.7044,-0.704,-0.7054,-0.7069,-0.7061,-0.7073,-0.7073,-0.7074,-0.7004,-0.6996,-0.7079,-0.7079,-0.7079,-0.7079,-0.7079,-0.7079,-0.6978,-0.7009,-0.7003,-0.7036,-0.7035,-0.7057,-0.7062,-0.7069,-0.7072,-0.7097,-0.711,-0.7107,-0.7108,-0.7122,-0.7136,-0.7135,-0.7142,-0.7157,-0.7153,-0.7088,-0.7079,-0.707,-0.7063,-0.7158,-0.7158,-0.7221,-0.7222,-0.7222]},{"header":{"parameterUnit":"m.s-1","parameterCategory":1,"la1":30.2991,"la2":30.254,"lo1":-89.0895,"lo2":-89.0444,"dy":0.0017,"dx":0.0017,"nx":28,"ny":28,"refTime":"2023-10-07T09:00:00:Z","depth":0,"parameterNumber":3,"parameterNumberName":"V-component_of_WINDS"},"data":[0,0,0,0,0,0,0,0,0,0,0,0,0,0,0,0,0,0,0,0,0,0,0,0,0,0,0,0,0,0,0,0,0,0,0,0,0,0,0,0,0,0,0,0,0,0,0,0,0,0,0,0,0,0,0,0,0,0,-6.9142,-6.9143,0,-6.9201,-6.9202,-6.9203,-6.9097,-6.9093,-6.909,-6.9086,-6.9142,-6.9146,-6.9151,0,0,0,0,0,0,0,0,0,0,0,0,0,-6.8932,-6.8936,-6.9142,-6.9143,-6.9144,-6.9201,-6.9202,-6.9203,-6.9097,-6.9093,-6.9089,-6.9085,-6.914,-6.9146,-6.9152,0,0,0,0,0,0,0,0,0,0,0,0,0,-6.901,-6.8938,-6.9142,-6.9098,-6.9095,-6.9201,-6.9202,-6.9203,-6.9098,-6.9093,-6.9088,-6.9083,-6.9138,-6.9145,-6.9152,-6.9303,0,0,-6.9174,-6.9177,0,0,0,0,0,0,0,0,-6.9006,-6.9018,-6.9104,-6.9101,-6.9098,-6.9136,-6.9148,-6.9236,-6.91,-6.9097,-6.9086,-6.908,-6.9144,-6.915,-6.9173,-6.9305,-6.9308,-6.9175,-6.9179,-6.9182,-6.9184,0,0,0,0,0,0,0,-6.9001,-6.9015,-6.9165,-6.9105,-6.9102,-6.9074,-6.9079,-6.9164,-6.9149,-6.9097,-6.9089,-6.9098,-6.9141,-6.9166,-6.9173,-6.9309,-6.9175,-6.9181,-6.9185,-6.9188,-6.9567,-6.9572,0,0,0,0,0,0,-6.9002,-6.9011,-6.9163,-6.9167,-6.9038,-6.9082,-6.9088,-6.9129,-6.9148,-6.9146,-6.9102,-6.9093,-6.9157,-6.9165,-6.9175,-6.9352,-6.9182,-6.9189,-6.9193,-6.9561,-6.9568,-6.9574,0,0,0,0,0,0,-6.8998,-6.9016,-6.9161,-6.9087,-6.9104,-6.9091,-6.9139,-6.9133,-6.9158,-6.9152,-6.9149,-6.9131,-6.9153,-6.9165,-6.9272,-6.9353,-6.9192,-6.9199,-6.9554,-6.9563,-6.9571,-6.9708,0,0,0,0,0,0,-6.8992,-6.9015,-6.9074,-6.909,-6.9108,-6.9259,-6.9144,-6.9138,-6.9172,-6.9159,-6.9178,-6.9176,-6.915,-6.9262,-6.9279,-6.936,-6.9204,-6.9547,-6.9558,-6.9569,-6.9697,-6.9721,-6.9741,0,0,0,0,0,-6.8985,-6.9109,-6.9077,-6.9096,-6.9181,-6.9264,-6.9275,-6.9243,-6.9178,-6.9236,-6.9232,-6.9176,-6.9341,-6.9274,-6.9292,-6.9376,-6.9542,-6.9555,-6.9568,-6.9687,-6.9716,-6.9741,0,0,0,0,0,0,-6.9101,-6.911,-6.9075,-6.9208,-6.9237,-6.9246,-6.9318,-6.9275,-6.932,-6.9307,-6.9264,-6.9269,-6.9385,-6.9391,-6.9316,-6.9522,-6.943,-6.9448,-6.9515,-6.9542,-6.9564,-6.956,-6.921,0,0,0,0,0,-6.9142,-6.9211,-6.9214,-6.9332,-6.9348,-6.9331,-6.9366,-6.9339,-6.9366,-6.9377,-6.938,-6.9407,-6.9465,-6.9504,-6.9557,-6.9697,-6.9699,-6.9764,-6.9786,-6.9804,-6.982,-6.9894,-6.9923,-6.9617,-6.9617,-6.9617,0,0,-6.9228,-6.9241,-6.9287,-6.9355,-6.9374,-6.9445,-6.9342,-6.942,-6.9472,-6.9388,-6.949,-6.9494,-6.952,-6.9645,-6.97,-6.9654,-6.9905,-6.9821,-6.9836,-6.9841,-6.991,-6.9939,-6.9965,-6.9626,-6.9624,-6.9623,0,0,-6.942,-6.9438,-6.9537,-6.9559,-6.9589,-6.9577,-6.9601,-6.9618,-6.9618,-6.972,-6.9659,-6.9718,-6.9819,-6.984,-6.9864,-7.0066,-7.0015,-7.0084,-7.02,-7.0273,-7.0298,-7.0319,-7.039,-7.0416,-7.0099,-7.01,-7.01,0,-6.9522,-6.9628,-6.9593,-6.9677,-6.9709,-6.9638,-6.9738,-6.9759,-6.9805,-6.9827,-6.9775,-6.99,-6.9913,-7.0042,-7.0091,-7.0113,-7.0138,-7.0081,-7.0297,-7.0318,-7.0337,-7.0405,-7.0432,-7.0108,-7.0107,-7.0106,-7.0105,0,-6.9752,-6.9826,-6.9902,-6.9951,-6.999,-7.0082,-7.006,-7.0104,-7.0073,-7.0067,-7.0171,-7.0184,-7.0239,-7.0267,-7.0237,-7.0392,-7.0362,-7.0305,-7.0211,-7.0375,-7.0438,-7.0464,-7.0119,-7.0116,-7.0114,-7.0112,0,0,-7.0018,-7.0047,-7.0076,-7.0097,-7.0126,-7.0181,-7.0269,-7.0324,-7.0362,-7.0396,-7.0468,-7.0555,-7.0502,-7.0529,-7.0501,-7.0566,-7.0724,-7.05,-7.05,-7.0541,-7.0894,-7.0938,-7.0969,-7.0691,-7.0696,-7.0699,-7.0892,0,-7.021,-7.0363,-7.0335,-7.0483,-7.0551,-7.0485,-7.0561,-7.0586,-7.0582,-7.0637,-7.0631,-7.0694,-7.0619,-7.0635,-7.0696,-7.0692,-7.0794,-7.0678,-7.0756,-7.0759,-7.0752,-7.1001,-7.1048,-7.1229,-7.0917,-7.0921,-7.0924,0,-7.0453,-7.0498,-7.0655,-7.0673,-7.07,-7.0769,-7.0818,-7.0872,-7.0898,-7.089,-7.0922,-7.0882,-7.0967,-7.0873,-7.099,-7.0911,-7.0941,-7.0944,-7.095,-7.0956,-7.0851,-7.1014,-7.1286,-7.1313,-7.0962,-7.0959,-7.0956,0,-7.0632,-7.0732,-7.0838,-7.0858,-7.0882,-7.0932,-7.0944,-7.0965,-7.1,-7.1042,-7.1064,-7.1114,-7.1142,-7.1181,-7.1155,-7.1089,-7.1276,-7.1179,-7.1271,-7.1272,-7.1313,-7.1311,-7.1594,-7.1333,-7.1332,-7.1332,-7.1331,0,-7.0849,-7.0947,-7.0919,-7.0985,-7.1092,-7.1058,-7.1165,-7.1168,-7.1188,-7.1251,-7.1196,-7.1257,-7.1219,-7.1276,-7.1256,-7.1356,-7.1368,-7.1363,-7.1357,-7.1369,-7.1369,-7.1388,-7.1374,-7.1339,-7.1337,-7.1336,-7.1335,0,-7.1067,-7.1053,-7.1164,-7.1178,-7.1184,-7.1263,-7.1274,-7.1334,-7.1326,-7.1407,-7.1424,-7.1411,-7.1475,-7.1454,-7.1522,-7.1508,-7.1635,-7.1612,-7.1627,-7.1621,-7.1714,-7.1706,-7.2019,-7.2058,-7.1772,-7.1775,-7.1777,0,-7.1206,-7.1281,-7.1303,-7.1343,-7.136,-7.1424,-7.146,-7.1429,-7.1468,-7.1504,-7.156,-7.162,-7.1666,-7.1772,-7.1767,-7.1819,-7.1797,-7.1903,-7.1804,-7.1814,-7.1799,-7.1795,-7.1802,-7.1923,-7.1926,-7.1929,-7.1931,0,-7.1455,-7.1444,-7.15,-7.1553,-7.1598,-7.1638,-7.1672,-7.1707,-7.1678,-7.1725,-7.1791,-7.1827,-7.1898,-7.1958,-7.2005,-7.2015,-7.1969,-7.1963,-7.1986,-7.1999,-7.2005,-7.2003,-7.1681,-7.1955,-7.1953,-7.1951,-7.195,-7.1949,-7.1638,-7.1701,-7.1727,-7.1791,-7.1814,-7.1847,-7.1905,-7.1905,-7.196,-7.2017,-7.1994,-7.2071,-7.2094,-7.2153,-7.217,-7.2228,-7.2186,-7.2221,-7.223,-7.2239,-7.2251,-7.1996,-7.2236,-7.2235,-7.2234,-7.2234,-7.2233,0,-7.1884,-7.1898,-7.1957,-7.2008,-7.2057,-7.2011,-7.2047,-7.2091,-7.216,-7.2186,-7.2234,-7.231,-7.2368,-7.2368,-7.2422,-7.2468,-7.2448,-7.2483,-7.2479,-7.2482,-7.2285,-7.2259,-7.2499,-7.2499,-7.2499,-7.2499,-7.2498,-7.2498,-7.2018,-7.2122,-7.2115,-7.223,-7.2242,-7.2318,-7.2343,-7.2373,-7.2394,-7.2483,-7.2531,-7.2532,-7.2548,-7.2602,-7.2653,-7.2651,-7.2673,-7.2717,-7.2708,-7.2523,-7.2496,-7.2471,-7.2447,-7.2722,-7.2722,-7.29,-7.2902,-7.2903]}]]